Time,TemperatureF,DewpointF,PressureIn,WindDirection,WindDirectionDegrees,WindSpeedMPH,WindSpeedGustMPH,Humidity,HourlyPrecipIn,Conditions,Clouds,dailyrainin,SoftwareType,DateUTC
2013-06-28 00:07:00,82.0,74.1,29.82,West,270,0.0,-999.0,77,-99.99,,,0.00,Acu-Link.com,2013-06-28 05:07:00,
2013-06-28 00:22:00,81.7,74.2,29.80,WNW,292,1.7,-999.0,78,-99.99,,,0.00,Acu-Link.com,2013-06-28 05:22:00,
2013-06-28 00:37:00,81.5,74.0,29.81,WNW,292,0.0,-999.0,78,-99.99,,,0.00,Acu-Link.com,2013-06-28 05:37:00,
2013-06-28 00:52:00,81.3,74.1,29.79,West,270,0.0,-999.0,79,-99.99,,,0.00,Acu-Link.com,2013-06-28 05:52:00,
2013-06-28 01:07:00,81.0,74.2,29.82,NNE,22,0.0,-999.0,80,-99.99,,,0.00,Acu-Link.com,2013-06-28 06:07:00,
2013-06-28 01:23:00,80.8,74.0,29.78,West,270,1.1,-999.0,80,-99.99,,,0.00,Acu-Link.com,2013-06-28 06:23:00,
2013-06-28 01:38:00,80.6,73.8,29.80,NW,315,2.2,-999.0,80,-99.99,,,0.00,Acu-Link.com,2013-06-28 06:38:00,
2013-06-28 01:53:00,80.6,73.8,29.79,ESE,112,2.7,-999.0,80,-99.99,,,0.00,Acu-Link.com,2013-06-28 06:53:00,
2013-06-28 02:08:00,80.6,73.8,29.82,NNE,22,1.7,-999.0,80,-99.99,,,0.00,Acu-Link.com,2013-06-28 07:08:00,
2013-06-28 02:24:00,80.4,73.6,29.78,West,270,2.2,-999.0,80,-99.99,,,0.00,Acu-Link.com,2013-06-28 07:24:00,
2013-06-28 02:39:00,80.6,73.8,29.79,WNW,292,0.0,-999.0,80,-99.99,,,0.00,Acu-Link.com,2013-06-28 07:39:00,
2013-06-28 02:54:00,80.1,73.7,29.81,WNW,292,0.0,-999.0,81,-99.99,,,0.00,Acu-Link.com,2013-06-28 07:54:00,
2013-06-28 03:10:00,79.9,73.5,29.79,West,270,0.0,-999.0,81,-99.99,,,0.00,Acu-Link.com,2013-06-28 08:10:00,
2013-06-28 03:25:00,79.7,73.7,29.79,SSW,202,0.0,-999.0,82,-99.99,,,0.00,Acu-Link.com,2013-06-28 08:25:00,
2013-06-28 03:41:00,79.3,73.3,29.77,NE,45,0.0,-999.0,82,-99.99,,,0.00,Acu-Link.com,2013-06-28 08:41:00,
2013-06-28 03:56:00,79.2,73.6,29.77,West,270,1.7,-999.0,83,-99.99,,,0.00,Acu-Link.com,2013-06-28 08:56:00,
2013-06-28 04:11:00,79.0,73.4,29.78,SW,225,0.0,-999.0,83,-99.99,,,0.00,Acu-Link.com,2013-06-28 09:11:00,
2013-06-28 04:26:00,78.8,73.5,29.78,NNE,22,2.7,-999.0,84,-99.99,,,0.00,Acu-Link.com,2013-06-28 09:26:00,
2013-06-28 04:41:00,79.0,73.7,29.75,WSW,247,1.7,-999.0,84,-99.99,,,0.00,Acu-Link.com,2013-06-28 09:41:00,
2013-06-28 04:56:00,79.0,73.7,29.80,NW,315,1.1,-999.0,84,-99.99,,,0.00,Acu-Link.com,2013-06-28 09:56:00,
2013-06-28 05:11:00,78.8,73.5,29.79,SSW,202,1.7,-999.0,84,-99.99,,,0.00,Acu-Link.com,2013-06-28 10:11:00,
2013-06-28 05:27:00,78.8,73.5,29.79,SW,225,0.0,-999.0,84,-99.99,,,0.00,Acu-Link.com,2013-06-28 10:27:00,
2013-06-28 05:42:00,78.4,73.2,29.79,West,270,0.0,-999.0,84,-99.99,,,0.00,Acu-Link.com,2013-06-28 10:42:00,
2013-06-28 05:57:00,78.3,73.4,29.75,NW,315,2.7,-999.0,85,-99.99,,,0.00,Acu-Link.com,2013-06-28 10:57:00,
2013-06-28 06:13:00,78.3,73.4,29.76,West,270,0.0,-999.0,85,-99.99,,,0.00,Acu-Link.com,2013-06-28 11:13:00,
2013-06-28 06:28:00,78.6,73.7,29.78,NNW,337,0.0,-999.0,85,-99.99,,,0.00,Acu-Link.com,2013-06-28 11:28:00,
2013-06-28 06:43:00,79.2,73.9,29.82,NW,315,4.7,-999.0,84,-99.99,,,0.00,Acu-Link.com,2013-06-28 11:43:00,
2013-06-28 06:59:00,79.5,73.9,29.80,NW,315,2.7,-999.0,83,-99.99,,,0.00,Acu-Link.com,2013-06-28 11:59:00,
2013-06-28 07:14:00,80.1,74.1,29.80,West,270,4.7,-999.0,82,-99.99,,,0.00,Acu-Link.com,2013-06-28 12:14:00,
2013-06-28 07:29:00,80.4,74.4,29.78,West,270,4.7,-999.0,82,-99.99,,,0.00,Acu-Link.com,2013-06-28 12:29:00,
2013-06-28 07:44:00,81.1,74.3,29.77,West,270,2.2,-999.0,80,-99.99,,,0.00,Acu-Link.com,2013-06-28 12:44:00,
2013-06-28 07:59:00,82.6,75.0,29.79,NW,315,7.8,-999.0,78,-99.99,,,0.00,Acu-Link.com,2013-06-28 12:59:00,
2013-06-28 08:15:00,82.4,74.4,29.82,NW,315,6.8,-999.0,77,-99.99,,,0.00,Acu-Link.com,2013-06-28 13:15:00,
2013-06-28 08:30:00,83.1,75.1,29.81,NW,315,7.3,-999.0,77,-99.99,,,0.00,Acu-Link.com,2013-06-28 13:30:00,
2013-06-28 08:45:00,83.5,75.1,29.80,West,270,4.2,-999.0,76,-99.99,,,0.00,Acu-Link.com,2013-06-28 13:45:00,
2013-06-28 09:00:00,84.7,74.6,29.80,WNW,292,8.9,-999.0,72,-99.99,,,0.00,Acu-Link.com,2013-06-28 14:00:00,
2013-06-28 09:15:00,86.2,75.2,29.80,West,270,4.2,-999.0,70,-99.99,,,0.00,Acu-Link.com,2013-06-28 14:15:00,
2013-06-28 09:31:00,86.7,74.4,29.76,WNW,292,10.4,-999.0,67,-99.99,,,0.00,Acu-Link.com,2013-06-28 14:31:00,
2013-06-28 09:46:00,86.9,73.7,29.80,NW,315,3.2,-999.0,65,-99.99,,,0.00,Acu-Link.com,2013-06-28 14:46:00,
2013-06-28 10:01:00,87.8,73.1,29.80,NNE,22,14.0,-999.0,62,-99.99,,,0.00,Acu-Link.com,2013-06-28 15:01:00,
2013-06-28 10:16:00,89.1,73.9,29.78,SE,135,3.2,-999.0,61,-99.99,,,0.00,Acu-Link.com,2013-06-28 15:16:00,
2013-06-28 10:32:00,89.6,73.3,29.78,NNW,337,2.7,-999.0,59,-99.99,,,0.00,Acu-Link.com,2013-06-28 15:32:00,
2013-06-28 10:47:00,89.8,73.0,29.76,NNW,337,4.7,-999.0,58,-99.99,,,0.00,Acu-Link.com,2013-06-28 15:47:00,
2013-06-28 11:02:00,90.0,72.7,29.74,NW,315,4.2,-999.0,57,-99.99,,,0.00,Acu-Link.com,2013-06-28 16:02:00,
2013-06-28 11:17:00,91.8,72.7,29.76,NNW,337,8.9,-999.0,54,-99.99,,,0.00,Acu-Link.com,2013-06-28 16:17:00,
2013-06-28 11:32:00,91.8,72.7,29.72,NE,45,3.2,-999.0,54,-99.99,,,0.00,Acu-Link.com,2013-06-28 16:32:00,
2013-06-28 11:48:00,94.5,73.5,29.71,South,180,2.7,-999.0,51,-99.99,,,0.00,Acu-Link.com,2013-06-28 16:48:00,
2013-06-28 12:03:00,92.5,71.7,29.76,NW,315,5.3,-999.0,51,-99.99,,,0.00,Acu-Link.com,2013-06-28 17:03:00,
2013-06-28 12:18:00,94.1,72.6,29.73,NW,315,3.7,-999.0,50,-99.99,,,0.00,Acu-Link.com,2013-06-28 17:18:00,
2013-06-28 12:33:00,95.4,74.4,29.78,North,0,4.7,-999.0,51,-99.99,,,0.00,Acu-Link.com,2013-06-28 17:33:00,
2013-06-28 12:48:00,93.0,73.3,29.73,North,0,3.2,-999.0,53,-99.99,,,0.00,Acu-Link.com,2013-06-28 17:48:00,
2013-06-28 13:04:00,93.6,72.7,29.73,SSW,202,2.2,-999.0,51,-99.99,,,0.00,Acu-Link.com,2013-06-28 18:04:00,
2013-06-28 13:19:00,95.2,73.6,29.72,North,0,2.7,-999.0,50,-99.99,,,0.00,Acu-Link.com,2013-06-28 18:19:00,
2013-06-28 13:34:00,94.5,73.5,29.68,West,270,2.2,-999.0,51,-99.99,,,0.00,Acu-Link.com,2013-06-28 18:34:00,
2013-06-28 13:49:00,95.7,74.0,29.69,NW,315,3.2,-999.0,50,-99.99,,,0.00,Acu-Link.com,2013-06-28 18:49:00,
2013-06-28 14:04:00,97.0,74.0,29.71,WNW,292,5.8,-999.0,48,-99.99,,,0.00,Acu-Link.com,2013-06-28 19:04:00,
2013-06-28 14:20:00,95.7,74.6,29.67,West,270,4.2,-999.0,51,-99.99,,,0.00,Acu-Link.com,2013-06-28 19:20:00,
2013-06-28 14:35:00,97.7,75.3,29.69,South,180,3.7,-999.0,49,-99.99,,,0.00,Acu-Link.com,2013-06-28 19:35:00,
2013-06-28 14:50:00,97.0,74.6,29.70,SSW,202,3.2,-999.0,49,-99.99,,,0.00,Acu-Link.com,2013-06-28 19:50:00,
2013-06-28 15:05:00,97.2,72.9,29.70,NNE,22,3.7,-999.0,46,-99.99,,,0.00,Acu-Link.com,2013-06-28 20:05:00,
2013-06-28 15:20:00,96.1,73.2,29.67,West,270,7.3,-999.0,48,-99.99,,,0.00,Acu-Link.com,2013-06-28 20:20:00,
2013-06-28 15:36:00,96.6,73.0,29.68,West,270,3.7,-999.0,47,-99.99,,,0.00,Acu-Link.com,2013-06-28 20:36:00,
2013-06-28 15:51:00,97.3,74.3,29.64,SW,225,7.8,-999.0,48,-99.99,,,0.00,Acu-Link.com,2013-06-28 20:51:00,
2013-06-28 16:06:00,96.6,73.6,29.64,NE,45,3.7,-999.0,48,-99.99,,,0.00,Acu-Link.com,2013-06-28 21:06:00,
2013-06-28 16:21:00,100.2,74.3,29.66,West,270,3.2,-999.0,44,-99.99,,,0.00,Acu-Link.com,2013-06-28 21:21:00,
2013-06-28 16:37:00,98.6,74.2,29.66,West,270,4.7,-999.0,46,-99.99,,,0.00,Acu-Link.com,2013-06-28 21:37:00,
2013-06-28 16:52:00,99.1,74.0,29.63,WSW,247,4.2,-999.0,45,-99.99,,,0.00,Acu-Link.com,2013-06-28 21:52:00,
2013-06-28 17:07:00,99.7,74.5,29.63,WNW,292,3.7,-999.0,45,-99.99,,,0.00,Acu-Link.com,2013-06-28 22:07:00,
2013-06-28 17:22:00,98.2,74.5,29.66,WSW,247,4.7,-999.0,47,-99.99,,,0.00,Acu-Link.com,2013-06-28 22:22:00,
2013-06-28 17:38:00,97.7,74.0,29.62,West,270,3.2,-999.0,47,-99.99,,,0.00,Acu-Link.com,2013-06-28 22:38:00,
2013-06-28 17:53:00,98.2,73.2,29.63,NNW,337,4.7,-999.0,45,-99.99,,,0.00,Acu-Link.com,2013-06-28 22:53:00,
2013-06-28 18:08:00,97.9,73.5,29.62,West,270,3.2,-999.0,46,-99.99,,,0.00,Acu-Link.com,2013-06-28 23:08:00,
2013-06-28 18:23:00,97.0,73.4,29.65,WSW,247,3.7,-999.0,47,-99.99,,,0.00,Acu-Link.com,2013-06-28 23:23:00,
2013-06-28 18:39:00,96.8,73.8,29.61,West,270,1.7,-999.0,48,-99.99,,,0.00,Acu-Link.com,2013-06-28 23:39:00,
2013-06-28 18:54:00,96.6,73.6,29.60,NNW,337,2.7,-999.0,48,-99.99,,,0.00,Acu-Link.com,2013-06-28 23:54:00,
2013-06-28 19:09:00,95.0,73.4,29.60,NNE,22,2.7,-999.0,50,-99.99,,,0.00,Acu-Link.com,2013-06-29 00:09:00,
2013-06-28 19:24:00,93.6,72.7,29.64,ENE,67,0.0,-999.0,51,-99.99,,,0.00,Acu-Link.com,2013-06-29 00:24:00,
2013-06-28 19:39:00,92.7,71.9,29.61,West,270,2.7,-999.0,51,-99.99,,,0.00,Acu-Link.com,2013-06-29 00:39:00,
2013-06-28 19:55:00,91.0,71.5,29.63,West,270,0.0,-999.0,53,-99.99,,,0.00,Acu-Link.com,2013-06-29 00:55:00,
2013-06-28 20:10:00,89.8,71.4,29.63,ENE,67,2.2,-999.0,55,-99.99,,,0.00,Acu-Link.com,2013-06-29 01:10:00,
2013-06-28 20:25:00,89.1,71.3,29.59,SSW,202,0.0,-999.0,56,-99.99,,,0.00,Acu-Link.com,2013-06-29 01:25:00,
2013-06-28 20:40:00,87.8,71.1,29.63,North,0,1.1,-999.0,58,-99.99,,,0.00,Acu-Link.com,2013-06-29 01:40:00,
2013-06-28 20:55:00,86.9,70.8,29.60,West,270,0.0,-999.0,59,-99.99,,,0.00,Acu-Link.com,2013-06-29 01:55:00,
2013-06-28 21:11:00,86.5,70.9,29.61,West,270,1.7,-999.0,60,-99.99,,,0.00,Acu-Link.com,2013-06-29 02:11:00,
2013-06-28 21:26:00,86.0,71.4,29.60,WSW,247,0.0,-999.0,62,-99.99,,,0.00,Acu-Link.com,2013-06-29 02:26:00,
2013-06-28 21:41:00,85.5,71.9,29.62,ENE,67,0.0,-999.0,64,-99.99,,,0.00,Acu-Link.com,2013-06-29 02:41:00,
2013-06-28 21:56:00,85.1,72.4,29.67,West,270,0.0,-999.0,66,-99.99,,,0.00,Acu-Link.com,2013-06-29 02:56:00,
2013-06-28 22:11:00,84.7,72.1,29.67,North,0,0.0,-999.0,66,-99.99,,,0.00,Acu-Link.com,2013-06-29 03:11:00,
2013-06-28 22:27:00,84.6,72.0,29.64,NW,315,0.0,-999.0,66,-99.99,,,0.00,Acu-Link.com,2013-06-29 03:27:00,
2013-06-28 22:42:00,84.2,72.0,29.67,WNW,292,0.0,-999.0,67,-99.99,,,0.00,Acu-Link.com,2013-06-29 03:42:00,
2013-06-28 22:57:00,84.0,72.3,29.70,ESE,112,0.0,-999.0,68,-99.99,,,0.00,Acu-Link.com,2013-06-29 03:57:00,
2013-06-28 23:12:00,83.7,72.9,29.71,ENE,67,0.0,-999.0,70,-99.99,,,0.00,Acu-Link.com,2013-06-29 04:12:00,
2013-06-28 23:28:00,83.5,73.5,29.65,WNW,292,2.2,-999.0,72,-99.99,,,0.00,Acu-Link.com,2013-06-29 04:28:00,
2013-06-28 23:43:00,83.1,73.5,29.69,SSW,202,2.7,-999.0,73,-99.99,,,0.00,Acu-Link.com,2013-06-29 04:43:00,
2013-06-28 23:58:00,82.6,73.5,29.67,SW,225,0.0,-999.0,74,-99.99,,,0.00,Acu-Link.com,2013-06-29 04:58:00,